Regional Weather Roundup
Issued by NWS Mt. Holly, NJ

Home | Current Version | Previous Version | Text Only | Print | Product List | Glossary On
Versions: 1 2 3 4 5 6 7 8 9 10 11 12 13 14 15 16 17 18 19 20 21 22 23 24 25 26 27 28 29 30 31 32 33 34 35 36 37 38 39 40 41 42 43 44 45 46 47 48 49 50
000
ASUS41 KPHI 282012
RWRPHI

REGIONAL WEATHER ROUNDUP
NATIONAL WEATHER SERVICE MOUNT HOLLY NJ
400 PM EDT SUN MAY 28 2017

NOTE:  "FAIR" INDICATES FEW OR NO CLOUDS BELOW 12,000 FEET WITH NO
SIGNIFICANT WEATHER AND/OR OBSTRUCTIONS TO VISIBILITY.

 * = STATION DOES NOT REPORT PRECIPITATION (E.G. RAIN, SNOW, ETC.)
        OR FOG.

NJZ015>026-282100-
SOUTHERN NEW JERSEY

CITY           SKY/WX    TMP DP  RH WIND       PRES   REMARKS
POMONA         MOSUNNY   68  57  68 E14       29.90F
WILDWOOD*      CLOUDY    64  59  83 E12       29.90R
MILLVILLE      CLOUDY    70  60  70 E14       29.88F
WRIGHTSTOWN    PTSUNNY   74  56  54 E12G18    29.86F
MOUNT HOLLY    CLOUDY    73  55  53 SE8       29.87F
TRENTON        PTSUNNY   74  57  55 S12       29.88F

$$
NJZ001>014-282100-
NORTHERN NEW JERSEY

CITY           SKY/WX    TMP DP  RH WIND       PRES   REMARKS
SUSSEX         CLOUDY    72  58  61 SE9       29.90F
ANDOVER*         N/A     71  56  58 VRB3      29.89F
MORRISTOWN     MOSUNNY   72  57  60 SE13G20   29.91F
NEWARK         PTSUNNY   69  54  58 E12G17    29.92F
TETERBORO      PTSUNNY   70  54  56 SE13G23   29.91F
CALDWELL       CLOUDY    71  54  54 SE13      29.92F
SOMERVILLE     PTSUNNY   75  59  57 MISG      29.87F
ALLAIRE*       MOSUNNY   65  58  78 SE10      29.93F
TOMS RIVER*    MOSUNNY   70  59  68 SE12      29.91F

$$
PAZ043-044-047-054-055-060>062-066>071-282100-
EASTERN PENNSYLVANIA

CITY           SKY/WX    TMP DP  RH WIND       PRES   REMARKS
PHILADELPHIA   CLOUDY    74  58  57 SE9       29.87F
NORTH PHILA    CLOUDY    75  58  55 SE10      29.89F
BLUE BELL*     CLOUDY    72  59  64 SE5       29.88F
DOYLESTOWN     CLOUDY    72  58  61 VRB5      29.88F
QUAKERTOWN*    CLOUDY    73  59  60 SE9       29.89S
PERKASIE*      CLOUDY    72  59  64 SE5       29.89F
POTTSTOWN      CLOUDY    71  59  65 S5        29.89S
LANCASTER      CLOUDY    72  62  71 S10       29.86F
COATESVILLE    CLOUDY    70  61  73 VRB6G13   29.89S
READING        CLOUDY    72  62  71 S10       29.85F
ALLENTOWN      CLOUDY    75  57  53 SE10      29.86F
MOUNT POCONO   CLOUDY    66  55  67 SE12      29.90F
HAZLETON       CLOUDY    70  54  56 E8        29.91F
LEHIGHTON      CLOUDY    73  55  53 SE5       29.87S
WILKES BARRE   CLOUDY    73  55  53 VRB7      29.85F

$$
DEZALL-MDZ008-012-015-019-020-282100-
DELAWARE AND EASTERN MARYLAND

CITY           SKY/WX    TMP DP  RH WIND       PRES   REMARKS
WILMINGTON     CLOUDY    71  61  70 S8        29.88F
DOVER          LGT RAIN  64  64 100 SE6       29.88S
GEORGETOWN     LGT RAIN  65  62  90 E8        29.87F
EASTON         LGT RAIN  68  64  88 E6        29.90F
ABERDEEN       LGT RAIN  69  61  75 SE7       29.88S
PATUXENT       LGT RAIN  68  68 100 E5        29.83F FOG
OCEAN CITY     LGT RAIN  64  62  93 E9        29.85F
WALLOPS ISLAND LGT RAIN  66  66 100 E8        29.84S
CAMBRIDGE      PTSUNNY   72  66  83 NE6       29.85S
SALISBURY      LGT RAIN  67  66  97 E7        29.84F

$$
PAZ001-021-NYZ056-072-MDZ011-DCZ001-282100-
OTHER NEARBY LOCATIONS

CITY           SKY/WX    TMP DP  RH WIND       PRES   REMARKS
HARRISBURG     LGT RAIN  69  65  86 SE6       29.84F
STATE COLLEGE  CLOUDY    64  59  82 CALM      29.85F
WILLIAMSPORT   CLOUDY    72  60  66 CALM      29.83S
BINGHAMTON     CLOUDY    69  52  54 S8        29.85F
NEW YORK CITY  MOSUNNY   68  54  60 MISG      29.95F
BALTIMORE      LGT RAIN  66  66 100 CALM      29.86S FOG
WASHINGTON DC  CLOUDY    68  65  90 E10       29.85F

$$



USA.gov is the U.S. government's official web portal to all federal, state and local government web resources and services.